This is the latest recevied weather packets stored in our database for station/object KD8OZS. If no packets are shown the sender has not sent any weather packets the latest 1 day(s).
| Time | Temp. | Humidity | Pressure | Rain* | Wind** | Luminosity | Snow |
|---|---|---|---|---|---|---|---|
| 1778052755 | 6.67° C | 97% | 1000.2 hPa | 4.32 mm | - | 0 W/m² | - |
| 1778051847 | 6.67° C | 97% | 1000.2 hPa | 4.32 mm | - | 0 W/m² | - |
| 1778050636 | 7.22° C | 98% | 1000 hPa | 3.05 mm | - | 0 W/m² | - |
| 1778050333 | 7.22° C | 98% | 1000 hPa | 4.83 mm | - | 0 W/m² | - |
| 1778050029 | 7.78° C | 98% | 999.9 hPa | 6.1 mm | - | 0 W/m² | - |
| 1778049725 | 8.33° C | 98% | 999.7 hPa | 4.32 mm | - | 0 W/m² | - |
| 1778049120 | 8.89° C | 98% | 999.8 hPa | 4.83 mm | - | 0 W/m² | - |
| 1778048819 | 8.89° C | 98% | 999.7 hPa | 3.05 mm | - | 0 W/m² | - |
| 1778048515 | 8.89° C | 98% | 999.5 hPa | 4.32 mm | - | 0 W/m² | - |
| 1778048211 | 8.89° C | 98% | 999.5 hPa | 4.83 mm | - | 0 W/m² | - |
| 1778047607 | 8.89° C | 98% | 999.8 hPa | 4.32 mm | - | 0 W/m² | - |
| 1778047001 | 8.89° C | 98% | 999.7 hPa | 4.83 mm | - | 0 W/m² | - |
| 1778046698 | 8.89° C | 98% | 999.8 hPa | 3.56 mm | - | 0 W/m² | - |
| 1778046395 | 8.89° C | 98% | 999.9 hPa | 4.83 mm | - | 0 W/m² | - |
| 1778045487 | 8.89° C | 98% | 1000.3 hPa | 6.1 mm | - | 0 W/m² | - |
| 1778045185 | 8.89° C | 98% | 1000.3 hPa | 4.83 mm | - | 0 W/m² | - |
| 1778043974 | 9.44° C | 98% | 1000.4 hPa | 0 mm | - | 0 W/m² | - |
| 1778043671 | 9.44° C | 98% | 1000.3 hPa | 0 mm | - | 0 W/m² | - |
| 1778043064 | 9.44° C | 98% | 1000.3 hPa | 1.78 mm | - | 0 W/m² | - |
| 1778042458 | 9.44° C | 98% | 1000.4 hPa | 1.27 mm | - | 0 W/m² | - |
| 1778042156 | 9.44° C | 98% | 1000.4 hPa | 1.78 mm | - | 0 W/m² | - |
| 1778041854 | 9.44° C | 98% | 1000.6 hPa | 1.78 mm | - | 0 W/m² | - |
| 1778041553 | 9.44° C | 98% | 1000.4 hPa | 1.27 mm | - | 0 W/m² | - |
| 1778041250 | 9.44° C | 98% | 1000.4 hPa | 1.27 mm | - | 0 W/m² | - |
| 1778040949 | 9.44° C | 98% | 1000.4 hPa | 1.78 mm | - | 0 W/m² | - |
* Rain latest hour (hover to see other rain measurements)
** Current wind speed in m/s (hover to see current wind gust speed)